Weather Roundup
Issued by NWS Springfield, MO

Home | Current Version | Previous Version | Graphics & Text | Print | Product List | Glossary On
Versions: 1 2 3 4 5 6 7 8 9 10 11 12 13 14 15 16 17 18 19 20 21 22 23 24 25 26 27 28 29 30 31 32 33 34 35 36 37 38 39 40 41 42 43 44 45 46 47 48 49 50
000
NZUS99 KSGF 261407
HRRSGF

HOURLY WEATHER
NATIONAL WEATHER SERVICE SPRINGFIELD MO
800 AM CST FRI DEC 26 2014

......SGF CWA......

CITY           SKY/WX    TMP DP  RH WIND       PRES   REMARKS
SPRINGFIELD    CLEAR     42  37  82 S15       30.01R
JOPLIN         PTCLDY    48  42  80 S18G24    29.97R
WEST PLAINS    CLEAR     37  34  89 S10       30.10R WCI  30
ROLLA          CLEAR     41  36  82 S15       30.02S
OSAGE BEACH    CLEAR     43  36  75 S10       30.01R
BRANSON        PTCLDY    41  37  87 SE10      30.04S

......SURROUNDING SGF CWA......

CITY           SKY/WX    TMP DP  RH WIND       PRES   REMARKS
CHANUTE        CLOUDY    44  40  85 S13       29.92R
PARSONS        CLOUDY    46  41  82 S6        29.94R
COFFEYVILLE    CLOUDY    45  40  82 MISG      29.94R
EMPORIA        CLOUDY    39  31  72 W8        29.89R WCI  33
GROVE OK       PTCLDY    50  43  76 S5        30.00R
ROGERS AR      CLEAR     46  41  82 SE10      30.01R
SILOAM SPRINGS MOCLDY    46  37  71 S9        30.01S
HARRISON AR    CLEAR     41  39  93 SE13      30.06R
NEAR YELLVILLE CLEAR     45  37  76 S8        30.08R

......KANSAS AND MISSOURI......

CITY           SKY/WX    TMP DP  RH WIND       PRES   REMARKS
KANSAS CTY INT CLOUDY    43  35  73 S8        29.90R
DOWNTOWN KC    CLOUDY    48  36  63 S8        29.92R
COLUMBIA       MOCLDY    41  36  82 SE13      30.00R
SEDALIA        MOCLDY    45  36  70 S13       29.97R
ST JOSEPH      CLOUDY    36  31  82 NW9       29.91R WCI  29
ST LOUIS       MOCLDY    43  35  73 S9        30.07R
SPIRIT OF STL  CLEAR     43  36  76 VRB6      30.05S
KIRKSVILLE     CLOUDY    37  34  89 SE7       29.95R WCI  32
WICHITA        CLOUDY    34  29  82 N14G20    29.89R WCI  25
TOPEKA         CLOUDY    37  33  85 CALM      29.91R
OLATHE         CLOUDY    45  37  73 S9        29.91R

......TENNESSEE......

CITY           SKY/WX    TMP DP  RH WIND       PRES   REMARKS
MEMPHIS        CLOUDY    44  36  73 SE3       30.23R
NASHVILLE      MOCLDY    34  33  96 S8        30.31R WCI  27

......ARKANSAS.......

CITY           SKY/WX    TMP DP  RH WIND       PRES   REMARKS
FAYETTEVILLE   CLEAR     43  40  89 S6        30.03R
FT SMITH       PTCLDY    41  38  89 NE7       30.05R
LITTLE ROCK    CLOUDY    44  38  79 E3        30.17R

......OKLAHOMA.......

CITY           SKY/WX    TMP DP  RH WIND       PRES   REMARKS
TULSA          CLOUDY    50  45  83 S10       29.94R
PONCA CITY     MOCLDY    48  40  73 S10G17    29.87S
MCALESTER      CLOUDY    52  45  77 S8        29.97R
OKLAHOMA CITY  CLOUDY    47  42  83 SE8       29.89R

......IOWA............

CITY           SKY/WX    TMP DP  RH WIND       PRES   REMARKS
DES MOINES     MOCLDY    34  29  82 S6        29.90R WCI  29
QUAD CITIES    MOCLDY    41  34  76 S10       29.94R

......ILLINOIS........

CITY           SKY/WX    TMP DP  RH WIND       PRES   REMARKS
QUINCY         MOCLDY    42  35  76 S13       29.99R
CHICAGO        PTCLDY    37  32  82 S9        30.00R WCI  30




USA.gov is the U.S. government's official web portal to all federal, state and local government web resources and services.